Regional Weather Roundup
Issued by NWS

Home | Current Version | Previous Version | Graphics & Text | Print | Product List | Glossary On
Versions: 1 2 3 4 5 6 7 8 9 10 11 12 13 14 15 16 17 18 19 20 21 22 23 24 25 26 27 28 29 30 31 32 33 34 35 36 37 38 39 40 41 42 43 44 45 46 47 48 49 50
504
ASUS43 KOAX 222002
RWRNE

WEATHER ROUNDUP FOR NEBRASKA
NATIONAL WEATHER SERVICE OMAHA NE
300 PM CDT SAT JUL 22 2017

NOTES: SATELLITE DATA IS BEING USED TO AUGMENT CLOUD COVER ABOVE
       12000 FEET.
       "FAIR" INDICATES FEW OR NO CLOUDS BELOW 12,000 FEET WITH NO
       SIGNIFICANT WEATHER AND/OR OBSTRUCTIONS TO VISIBILITY.


NEZ001>004-019>022-054>056-222100-
NEBRASKA PANHANDLE

CITY           SKY/WX    TMP DP  RH WIND       PRES   REMARKS
SCOTTSBLUFF    MOSUNNY   90  54  29 E16G23    30.09F
ALLIANCE       SUNNY     89  47  23 S15G25    30.09F
CHADRON        PTSUNNY   91  49  23 NE8       30.04F
GORDON         FAIR      83  52  34 CALM      30.10R
KIMBALL        SUNNY     87  52  30 S10G22    30.17F
SIDNEY         SUNNY     89  44  20 SE20G26   30.15S
$$

NEZ057>060-069>072-079>082-222100-
SOUTHWEST NEBRASKA

CITY           SKY/WX    TMP DP  RH WIND       PRES   REMARKS
NORTH PLATTE   CLOUDY    83  57  41 E7        30.06F
IMPERIAL       CLOUDY    86  47  25 E13       30.10R
LEXINGTON      CLOUDY    85  69  57 N10       30.02S
MCCOOK         CLOUDY    82  61  48 N14       30.04R
OGALLALA       CLOUDY    89  55  31 SE16      30.08F
$$

NEZ005>010-023>029-035>040-094-222100-
NORTH CENTRAL NEBRASKA

CITY           SKY/WX    TMP DP  RH WIND       PRES   REMARKS
VALENTINE      MOSUNNY   91  55  29 MISG      30.02F
AINSWORTH      SUNNY     85  65  51 CALM      30.04F
BROKEN BOW     LGT RAIN  81  68  64 N13       30.05R
O`NEILL        MOSUNNY   80  73  79 CALM      30.00F
ORD            CLOUDY    82  71  69 N10       30.00R
THEDFORD       MOSUNNY   89  56  32 SE10      30.05F
$$

NEZ041-046>049-061>064-073>077-083>087-222100-
SOUTH CENTRAL NEBRASKA

CITY           SKY/WX    TMP DP  RH WIND       PRES   REMARKS
GRAND ISLAND   LGT RAIN  84  74  71 N5        29.98R HX  91
AURORA         CLOUDY    85  78  79 N8        29.96R HX  96
HASTINGS       MOSUNNY   85  73  67 N8        29.98R HX  91
HEBRON         SUNNY     92  74  56 NE9       29.89S HX 101
HOLDREGE       PTSUNNY   85  69  60 N8        30.00S
KEARNEY        PTSUNNY   88  72  58 N9        29.98F HX  94
YORK           CLOUDY    84  75  74 NW7       29.95R HX  92
$$

NEZ011>018-030>034-042>045-222100-
NORTHEAST NEBRASKA

CITY           SKY/WX    TMP DP  RH WIND       PRES   REMARKS
NORFOLK        CLOUDY    83  69  62 N16       29.95R
ALBION         CLOUDY    86  73  64 N13G20    29.97S HX  92
BLAIR          MOSUNNY   89  74  61 N13       29.88F HAZE    HX  97
COLUMBUS       CLOUDY    90  72  55 N9        29.91S HX  97
FREMONT        CLOUDY    88  71  58 N6        29.89F HX  94
TEKAMAH        MOSUNNY   89  74  60 N12       29.89R HX  98
WAYNE          CLOUDY    80  77  91 N7        29.94S
$$

NEZ050>053-065>068-078-088>093-222100-
SOUTHEAST NEBRASKA

CITY           SKY/WX    TMP DP  RH WIND       PRES   REMARKS
LINCOLN        CLOUDY    92  74  55 NE12      29.88S HX 101
OMAHA EPPLEY   PTSUNNY   89  74  60 N13       29.86R HX  98
BEATRICE       SUNNY     94  75  54 NE9G16    29.86F HX 105
FALLS CITY     SUNNY     94  81  66 N10       29.82  HX 115
NEBRASKA CITY  SUNNY     91  77  64 NE10      29.86S HX 104
PLATTSMOUTH    SUNNY     90  74  59 N9        29.87S HX  98
$$

NEZ044-045-051>053-067-222100-
OMAHA AREA

CITY           SKY/WX    TMP DP  RH WIND       PRES   REMARKS
OMAHA EPPLEY   PTSUNNY   89  74  60 N13       29.86R HX  98
BLAIR          MOSUNNY   89  74  61 N13       29.88F HAZE    HX  97
FREMONT        CLOUDY    88  71  58 N6        29.89F HX  94
MILLARD        CLOUDY    91  75  59 N5        29.86F HX 102
OFFUTT AFB     MOSUNNY   92  75  58 N13       29.86R HX 102
PLATTSMOUTH    SUNNY     90  74  59 N9        29.87S HX  98
WAHOO          FAIR      88  74  64 N6        29.88R HX  96
$$




USA.gov is the U.S. government's official web portal to all federal, state and local government web resources and services.